STARLINK-35492, 65926

Orbit data source: Space-Track

STARLINK-35492, 65926 is a payload satellite owned by SpaceX/Seattle (US) in LEO that was launched on Wed, 08 Oct 2025 UTC via an FALCON 9 launch vehicle from the Air Force Western Test Range (AFWTR). Payload-class satellites include a variety of spacecraft equipped with specific instruments for various scientific and technological missions. These include communications satellites like Starlink; space stations such as the ISS; scientific satellites like the Hubble; Earth observation satellites from companies like Planet Labs, Umbra, and HawkEye 360; GPS; miniature CubeSats for education and research; and military/defense satellites.

Loading next visibility...
Identifier
65926, 2025-225S
Orbit
LEO
Country
Flag of USUS
Related business
Manufacturer
SpaceX/Seattle
Mission
Operational Commercial Communications
Bus & Motor
STARLINK V2MO, Unknown motor
Mass
575 kg wet, ~530 kg dry
Launch date (UTC)
2025-10-08 (8 months ago)
Launch vehicle
FALCON 9
Launch site
Air Force Western Test Range (AFWTR)
Object type
Payload
Rocket body
Debris
Shape & HBR
Box + 2 Pan, 17.7 m
Radar Cross Section
36.964 m², Large (>1 m²)

Expand to show TLE details & history
Last TLE update: 12 hours ago

TLE from 12 hours ago
0 STARLINK-35492
1 65926U 25225S   26151.25988175  .00039120  00000-0  13258-2 0  9990
2 65926  53.1574 141.8846 0000964  74.9256 285.1852 15.30205770 37055
Epoch: 2026-05-31T06:14Z
TLE epoch observation values (Epoch: 2026-05-31T06:14:13.783Z)
Latitude
0.00005°
Longitude
159.56309°
Altitude
475.924 km
Speed
7.629 km/s
True Right ascension
09h 27m 32s
True Declination
0° 00' 00"
Sunlit
Object was in daylight at epoch
Visualization orbit readout
Latitude
Unknown
Longitude
Unknown
Altitude
Unknown
Speed
Unknown
Apparent Right ascension
Unknown
Apparent Declination
Unknown
Sunlit
N/A
Visualization observer readout
Local Sidereal Time
04:02:25
Azimuth
Unknown
Elevation
Unknown
Doppler factor
Unknown
Orbital elements
Apogee altitude
476.115 km
Perigee altitude
474.794 km
Semi-major axis
6,853.592 km
Eccentricity
0.0001
Inclination
53.1574°
RAAN
141.8846°
Arg. of periapsis
74.9256°
True anomaly
285.17454°
Mean anomaly
285.1852°
Eccentric anomaly
285.17987°
Mean motion
3.8253 °/min
Orbital period
94.11 mins
BSTAR
0.0013258
Loading maneuver chart data...
Computing Atmospheric mass density...
Loading historical data...
Loading historical data...
Loading historical data...
Loading historical data...
Loading historical data...
Loading historical data...
Loading historical data...

Documentation

Showing up to 5 results
|